Вернуться в каталог

COSMOS 1191 DEB

АктивенHEO
NORAD 27898·DEBRIS·🇷🇺 Russia

Запущен Jul 2, 1980 с Plesetsk Cosmodrome

Loading…

Ближайшие Пролёты (ближайшие 24 часа)

TLE

СвежийSource: Space-Track

Эпоха: Sep 13, 2026, 16:00 UTC

1 27898U 80057L   26256.66667851 -.00000217  00000-0  00000-0 0  9991
2 27898  64.7769  45.6182 6981617  30.2591 355.8438  1.99718998 44712

Отслеживайте COSMOS 1191 DEB в реальном времени с AllMySat

Download on the App Store